Back to catalog

SL-16 DEB

AliveLEO
NORAD 22576·DEBRIS·🇷🇺 Russia

Launched Mar 26, 1993 from Baikonur Cosmodrome

Loading…

Next Passes (next 24 hours)

TLE

FreshSource: Space-Track

Epoch: Sep 14, 2026, 13:31 UTC

1 22576U 93016D   26257.56337633  .00000025  00000-0  62453-4 0  9990
2 22576  70.9947  97.5388 0198089  72.1654 319.7548 13.73604910676921

Track SL-16 DEB in real time with AllMySat

Download on the App Store